Temp
-8 -8 -8 -8 -8 -8 -8 -8 -8 -8 -8 -8 -7 -7 -7 -7 -7 -7 -7 -7 -7 -7 -7 -7 -7 -7 -7 -7 -7 -7 -7 -7 -7 -7 -7 -7 -7 -7 -7 -7 -7 -7 -8 -8 -8 -8 -8 -8 -8 -8 -8 -8 -8 -8 -8 -7 -7 -7 -7 -8 -8 -8 -8
-7 -7 -7 -8 -8 -8 -8 -8 -8 -8 -8 -8 -8 -7 -7 -7 -7 -7 -7 -7 -7 -7 -7 -7 -7 -7 -7 -7 -7 -7 -7 -7 -7 -7 -7 -7 -7 -7 -7 -7 -7 -8 -8 -8 -8 -8 -8 -8 -8 -8 -8 -8 -8 -8 -8 -8 -8 -8 -8 -8 -8 -8 -8
-7 -7 -8 -8 -8 -8 -8 -8 -8 -8 -8 -8 -8 -7 -7 -7 -7 -7 -7 -7 -7 -7 -7 -7 -7 -7 -7 -7 -7 -7 -7 -7 -7 -7 -7 -7 -7 -7 -7 -7 -7 -8 -8 -8 -8 -8 -8 -8 -8 -8 -9 -9 -8 -8 -8 -8 -8 -8 -8 -8 -8 -8 -8
-7 -7 -7 -8 -8 -8 -8 -8 -8 -8 -8 -8 -7 -7 -7 -7 -7 -7 -7 -7 -7 -7 -7 -7 -7 -7 -7 -7 -7 -7 -7 -7 -7 -7 -7 -7 -7 -7 -7 -8 -8 -8 -8 -8 -8 -8 -8 -8 -8 -9 -9 -9 -9 -8 -8 -8 -8 -8 -8 -8 -8 -8 -8
-7 -7 -7 -8 -8 -8 -8 -8 -8 -8 -8 -7 -7 -7 -7 -7 -7 -7 -7 -7 -7 -7 -7 -7 -7 -7 -7 -7 -7 -7 -7 -7 -7 -7 -7 -7 -7 -7 -8 -8 -8 -8 -8 -8 -9 -9 -9 -9 -9 -9 -9 -9 -9 -9 -9 -9 -9 -9 -8 -8 -8 -8 -8
-7 -7 -7 -7 -8 -8 -8 -8 -8 -8 -8 -7 -7 -6 -6 -7 -7 -7 -7 -7 -7 -7 -7 -7 -7 -7 -7 -7 -8 -8 -8 -8 -8 -8 -8 -8 -8 -8 -8 -8 -8 -8 -8 -8 -8 -9 -9 -9 -9 -9 -9 -9 -9 -9 -9 -9 -9 -9 -9 -9 -9 -8 -8
-7 -7 -7 -7 -8 -8 -8 -8 -8 -8 -7 -7 -7 -6 -6 -6 -6 -7 -7 -7 -7 -7 -7 -7 -8 -8 -8 -8 -8 -8 -8 -8 -8 -8 -8 -8 -8 -8 -8 -8 -8 -8 -8 -8 -8 -9 -9 -9 -9 -9 -9 -9 -9 -9 -9 -9 -9 -9 -9 -9 -9 -9 -9
-7 -7 -7 -7 -8 -8 -8 -8 -8 -8 -7 -7 -6 -6 -6 -6 -6 -7 -7 -7 -7 -7 -7 -8 -8 -8 -8 -8 -8 -8 -8 -8 -8 -8 -8 -8 -8 -8 -8 -8 -8 -8 -8 -8 -8 -8 -9 -9 -8 -9 -9 -9 -9 -9 -9 -9 -9 -9 -9 -9 -9 -9 -9
-7 -7 -7 -7 -7 -7 -8 -8 -8 -7 -7 -7 -6 -6 -6 -6 -6 -6 -7 -7 -7 -7 -8 -8 -8 -8 -8 -8 -8 -8 -8 -8 -8 -8 -8 -8 -8 -8 -8 -8 -8 -8 -8 -8 -8 -9 -9 -9 -9 -9 -9 -9 -9 -9 -9 -9 -10 -10 -10 -9 -9 -9 -9
-7 -7 -7 -7 -7 -7 -7 -8 -8 -7 -7 -7 -6 -6 -6 -6 -6 -7 -7 -7 -7 -7 -8 -8 -8 -8 -8 -8 -8 -8 -8 -8 -8 -8 -7 -8 -8 -8 -8 -8 -8 -8 -8 -9 -9 -9 -9 -9 -9 -9 -9 -9 -9 -9 -9 -9 -10 -10 -10 -10 -9 -10 -10
-7 -7 -7 -7 -7 -7 -7 -8 -8 -7 -7 -7 -7 -6 -7 -7 -7 -7 -7 -7 -7 -8 -8 -8 -8 -8 -8 -8 -8 -8 -8 -8 -8 -7 -7 -8 -8 -8 -8 -8 -8 -8 -8 -9 -9 -9 -9 -9 -9 -9 -10 -9 -9 -10 -10 -10 -10 -10 -10 -10 -10 -10 -10
-7 -7 -7 -7 -7 -7 -7 -7 -8 -8 -7 -7 -7 -7 -7 -7 -7 -7 -7 -7 -8 -8 -8 -8 -8 -8 -8 -8 -8 -8 -8 -8 -8 -8 -8 -8 -9 -9 -8 -8 -8 -8 -8 -8 -9 -9 -9 -9 -9 -9 -10 -10 -10 -10 -10 -10 -10 -10 -10 -10 -10 -10 -10
-7 -7 -7 -7 -7 -8 -7 -7 -8 -8 -7 -7 -7 -7 -7 -7 -7 -7 -7 -8 -8 -8 -8 -8 -8 -8 -8 -8 -8 -8 -8 -8 -8 -8 -8 -8 -8 -8 -8 -8 -8 -8 -8 -9 -9 -9 -9 -9 -9 -9 -9 -10 -10 -10 -10 -10 -10 -10 -10 -10 -10 -10 -10
-8 -8 -8 -7 -8 -8 -7 -8 -8 -8 -7 -7 -7 -7 -7 -7 -7 -8 -8 -8 -8 -8 -8 -8 -8 -8 -8 -8 -8 -8 -8 -7 -8 -8 -8 -8 -8 -8 -8 -8 -8 -8 -8 -9 -9 -9 -9 -9 -9 -9 -9 -9 -10 -10 -10 -10 -11 -11 -10 -10 -10 -10 -10
-8 -8 -8 -7 -8 -8 -8 -8 -8 -7 -7 -7 -7 -7 -8 -8 -8 -8 -8 -8 -8 -8 -8 -8 -8 -8 -8 -8 -8 -8 -7 -8 -8 -8 -8 -7 -7 -8 -8 -8 -8 -8 -9 -9 -9 -9 -9 -9 -9 -9 -9 -9 -9 -10 -10 -10 -11 -11 -10 -10 -10 -10 -10
-8 -8 -8 -7 -8 -8 -8 -8 -8 -7 -7 -7 -7 -7 -7 -7 -8 -8 -8 -8 -8 -7 -7 -7 -7 -8 -8 -8 -8 -8 -8 -8 -8 -8 -8 -7 -7 -7 -8 -8 -8 -9 -9 -9 -9 -9 -9 -9 -9 -9 -9 -9 -10 -10 -10 -10 -10 -10 -10 -10 -11 -11 -10
-8 -8 -8 -8 -8 -8 -8 -8 -8 -8 -8 -8 -8 -8 -7 -7 -7 -7 -7 -7 -7 -7 -7 -7 -7 -8 -8 -8 -8 -8 -8 -8 -8 -7 -7 -7 -7 -7 -8 -9 -9 -9 -9 -9 -9 -9 -9 -9 -9 -9 -9 -10 -10 -10 -10 -10 -11 -10 -10 -10 -11 -11 -11
-8 -8 -8 -8 -8 -8 -8 -8 -8 -8 -8 -8 -8 -8 -8 -7 -7 -8 -8 -7 -7 -7 -7 -7 -7 -8 -8 -8 -8 -8 -8 -8 -8 -7 -7 -7 -7 -7 -8 -9 -9 -9 -9 -9 -9 -9 -9 -9 -9 -9 -9 -9 -9 -9 -9 -10 -10 -10 -10 -10 -11 -11 -11
-8 -8 -8 -8 -8 -8 -8 -8 -8 -8 -8 -8 -8 -8 -8 -8 -8 -8 -8 -8 -7 -7 -7 -8 -8 -8 -8 -8 -8 -8 -8 -8 -8 -8 -8 -8 -8 -8 -9 -9 -9 -9 -9 -9 -9 -9 -9 -9 -9 -9 -9 -8 -9 -9 -9 -9 -9 -9 -10 -10 -11 -11 -11
-8 -8 -8 -8 -8 -8 -8 -8 -8 -8 -8 -8 -8 -8 -8 -8 -8 -8 -8 -7 -7 -7 -8 -8 -8 -8 -8 -8 -8 -8 -8 -8 -8 -8 -8 -8 -8 -9 -9 -9 -9 -9 -9 -9 -9 -9 -9 -9 -9 -9 -8 -8 -9 -9 -9 -9 -9 -9 -10 -10 -10 -10 -11
-8 -8 -8 -8 -8 -8 -8 -8 -8 -8 -8 -8 -8 -8 -8 -8 -8 -8 -7 -7 -7 -8 -8 -8 -8 -8 -8 -9 -9 -8 -8 -8 -8 -8 -8 -8 -8 -8 -8 -8 -8 -8 -8 -8 -8 -8 -9 -9 -9 -8 -8 -8 -9 -9 -9 -10 -10 -10 -10 -10 -10 -11 -11
-8 -8 -8 -8 -8 -8 -8 -8 -8 -9 -9 -8 -8 -8 -8 -8 -8 -8 -8 -8 -8 -8 -8 -8 -8 -8 -9 -9 -9 -9 -9 -9 -8 -8 -8 -8 -8 -8 -8 -8 -8 -8 -8 -8 -8 -9 -9 -9 -9 -8 -8 -9 -9 -9 -9 -10 -10 -10 -10 -10 -10 -11 -11
-8 -8 -8 -8 -8 -8 -8 -8 -9 -9 -9 -8 -8 -8 -8 -8 -8 -8 -8 -8 -8 -8 -9 -9 -9 -9 -9 -9 -9 -9 -9 -9 -8 -8 -8 -8 -8 -8 -8 -8 -8 -7 -8 -8 -8 -9 -9 -9 -9 -9 -9 -9 -9 -9 -9 -10 -10 -10 -10 -10 -11 -11 -11
-8 -8 -8 -8 -8 -8 -8 -8 -8 -8 -8 -8 -8 -8 -8 -8 -8 -8 -8 -8 -8 -8 -9 -9 -9 -9 -9 -9 -9 -9 -9 -9 -9 -8 -8 -8 -8 -8 -8 -8 -8 -7 -7 -8 -8 -8 -9 -9 -9 -9 -9 -9 -9 -9 -10 -10 -10 -10 -11 -11 -11 -11 -11
-8 -8 -8 -8 -8 -8 -8 -8 -8 -8 -8 -8 -8 -8 -8 -8 -8 -8 -8 -8 -9 -9 -9 -9 -9 -9 -9 -9 -9 -9 -9 -9 -9 -9 -9 -8 -8 -8 -8 -8 -8 -7 -7 -8 -8 -8 -9 -9 -9 -9 -9 -9 -9 -9 -10 -10 -10 -10 -11 -11 -11 -11 -12
-8 -8 -8 -8 -8 -8 -8 -8 -8 -8 -8 -8 -8 -8 -8 -8 -8 -8 -8 -8 -9 -9 -9 -9 -9 -9 -9 -9 -9 -9 -9 -9 -9 -9 -9 -9 -8 -8 -8 -8 -8 -8 -8 -8 -8 -8 -9 -9 -9 -9 -9 -9 -9 -9 -10 -10 -10 -10 -11 -11 -11 -12 -12
-8 -8 -8 -8 -8 -8 -8 -8 -8 -8 -8 -8 -8 -8 -8 -8 -8 -8 -8 -9 -9 -9 -9 -9 -9 -9 -10 -10 -10 -10 -10 -10 -9 -9 -9 -9 -9 -9 -8 -8 -8 -8 -9 -8 -8 -8 -9 -9 -9 -9 -9 -9 -9 -10 -10 -10 -10 -10 -11 -11 -12 -12 -12
-8 -8 -8 -8 -8 -8 -8 -8 -8 -8 -8 -8 -8 -8 -8 -8 -9 -9 -9 -9 -9 -9 -9 -10 -10 -10 -10 -10 -10 -10 -10 -10 -9 -9 -9 -9 -9 -9 -9 -8 -8 -9 -9 -9 -9 -9 -9 -9 -9 -9 -9 -9 -10 -10 -10 -10 -10 -11 -11 -11 -12 -12 -12
-8 -8 -8 -8 -8 -8 -8 -8 -8 -8 -9 -9 -9 -9 -9 -9 -9 -9 -9 -9 -9 -9 -10 -10 -10 -10 -10 -10 -10 -9 -9 -9 -9 -9 -9 -9 -9 -9 -9 -9 -9 -9 -9 -9 -9 -9 -9 -9 -9 -9 -9 -9 -10 -11 -11 -11 -11 -11 -11 -12 -12 -12 -12
-8 -8 -8 -8 -8 -8 -8 -8 -9 -9 -9 -9 -9 -9 -9 -9 -9 -9 -9 -9 -9 -10 -10 -9 -10 -10 -10 -10 -10 -9 -9 -9 -9 -10 -10 -9 -9 -9 -9 -9 -9 -9 -9 -9 -9 -9 -9 -9 -9 -9 -9 -9 -10 -11 -11 -11 -11 -12 -12 -12 -13 -13 -13
-8 -8 -8 -9 -9 -9 -9 -9 -9 -9 -9 -9 -9 -9 -9 -9 -9 -9 -9 -10 -10 -10 -9 -9 -10 -10 -10 -10 -10 -9 -9 -9 -9 -10 -10 -10 -10 -10 -9 -9 -9 -9 -9 -10 -10 -10 -10 -9 -9 -9 -9 -9 -10 -11 -11 -11 -12 -12 -12 -13 -13 -13 -13
-9 -9 -9 -9 -8 -8 -8 -8 -9 -9 -9 -9 -9 -9 -9 -9 -9 -10 -10 -10 -9 -9 -9 -9 -10 -10 -10 -10 -10 -9 -9 -9 -10 -10 -10 -10 -10 -10 -9 -9 -9 -9 -9 -9 -10 -10 -10 -10 -10 -10 -10 -10 -11 -11 -11 -12 -12 -12 -12 -12 -12 -13 -13
-9 -9 -8 -8 -8 -8 -8 -8 -9 -9 -9 -9 -9 -9 -9 -9 -9 -10 -10 -10 -10 -10 -9 -9 -9 -9 -9 -9 -9 -9 -9 -9 -10 -10 -10 -10 -10 -9 -9 -9 -9 -9 -9 -9 -10 -10 -10 -10 -11 -11 -11 -11 -11 -11 -12 -12 -12 -12 -12 -12 -12 -13 -13
-9 -9 -9 -9 -9 -9 -9 -9 -9 -9 -9 -9 -9 -9 -9 -10 -10 -10 -10 -10 -10 -9 -9 -9 -9 -9 -8 -9 -9 -9 -9 -9 -9 -10 -10 -10 -10 -9 -9 -9 -9 -9 -10 -10 -10 -10 -11 -11 -11 -11 -12 -12 -12 -12 -12 -12 -12 -12 -12 -12 -12 -13 -13
-9 -9 -9 -9 -9 -9 -9 -9 -9 -9 -9 -9 -10 -10 -10 -10 -10 -10 -10 -10 -9 -9 -9 -9 -9 -9 -9 -9 -9 -9 -9 -9 -10 -10 -10 -10 -10 -10 -10 -10 -10 -10 -10 -10 -10 -11 -11 -11 -12 -12 -12 -12 -12 -12 -12 -12 -12 -12 -12 -13 -13 -13 -13
-9 -9 -9 -10 -9 -9 -10 -10 -10 -10 -10 -10 -10 -10 -10 -10 -10 -10 -10 -9 -9 -9 -9 -9 -9 -9 -9 -9 -9 -9 -9 -10 -10 -10 -10 -10 -10 -10 -10 -10 -10 -10 -10 -11 -11 -11 -12 -12 -12 -12 -12 -12 -12 -12 -12 -12 -13 -13 -13 -13 -14 -14 -14
-10 -10 -10 -10 -10 -10 -10 -10 -10 -10 -10 -10 -10 -10 -10 -10 -10 -10 -10 -9 -9 -10 -10 -9 -9 -9 -9 -9 -9 -10 -10 -10 -10 -10 -9 -9 -10 -10 -10 -10 -10 -11 -11 -11 -12 -12 -12 -12 -12 -12 -12 -12 -12 -13 -13 -13 -13 -14 -14 -14 -14 -14 -14
-10 -10 -9 -9 -9 -9 -9 -10 -10 -10 -10 -10 -10 -10 -10 -10 -10 -10 -10 -10 -10 -10 -10 -10 -10 -10 -10 -10 -10 -10 -10 -10 -10 -10 -10 -10 -10 -10 -11 -11 -11 -11 -11 -12 -12 -12 -12 -12 -12 -12 -12 -13 -13 -13 -13 -13 -14 -14 -14 -14 -14 -14 -15
Height
5896 5896 5897 5898 5899 5899 5899 5899 5898 5898 5897 5897 5897 5897 5897 5898 5899 5900 5901 5901 5902 5902 5903 5903 5903 5903 5903 5903 5903 5902 5902 5902 5902 5901 5900 5900 5899 5899 5899 5899 5899 5898 5898 5897 5896 5895 5894 5893 5893 5892 5891 5891 5890 5889 5888 5887 5887 5886 5885 5884 5884 5883 5882
5895 5895 5896 5896 5897 5897 5897 5897 5896 5896 5896 5895 5895 5895 5895 5896 5897 5897 5898 5899 5899 5900 5900 5901 5901 5900 5900 5900 5901 5901 5900 5900 5900 5899 5899 5898 5897 5897 5897 5897 5897 5896 5896 5895 5893 5892 5891 5890 5889 5889 5888 5888 5887 5886 5885 5883 5883 5882 5882 5881 5881 5880 5879
5895 5895 5895 5895 5895 5895 5895 5895 5894 5894 5893 5893 5893 5893 5893 5894 5894 5895 5896 5897 5897 5897 5898 5898 5898 5898 5898 5899 5899 5899 5899 5898 5898 5897 5897 5896 5896 5895 5895 5895 5894 5894 5893 5893 5891 5890 5889 5888 5886 5886 5885 5885 5884 5883 5882 5880 5880 5879 5878 5878 5878 5877 5875
5894 5894 5893 5893 5893 5894 5893 5893 5893 5892 5891 5890 5890 5891 5891 5891 5892 5893 5894 5895 5895 5895 5896 5896 5896 5896 5897 5897 5897 5897 5897 5896 5896 5895 5894 5894 5893 5893 5893 5892 5891 5891 5890 5890 5889 5887 5886 5885 5884 5884 5883 5883 5882 5880 5879 5878 5876 5876 5875 5875 5874 5873 5872
5892 5892 5892 5891 5892 5892 5891 5892 5891 5890 5889 5889 5888 5888 5889 5889 5890 5891 5892 5892 5893 5893 5894 5894 5894 5895 5895 5895 5895 5895 5895 5894 5893 5892 5891 5891 5891 5890 5890 5889 5888 5887 5886 5886 5885 5884 5884 5883 5882 5881 5880 5879 5878 5877 5876 5875 5873 5872 5872 5871 5870 5870 5869
5890 5890 5890 5890 5890 5889 5889 5890 5889 5889 5888 5887 5887 5886 5887 5887 5888 5889 5889 5890 5891 5891 5892 5892 5892 5893 5893 5893 5893 5892 5892 5891 5891 5890 5889 5888 5888 5887 5887 5886 5885 5884 5882 5882 5881 5881 5880 5879 5878 5877 5876 5875 5874 5873 5872 5871 5870 5869 5868 5867 5866 5866 5865
5888 5888 5888 5888 5888 5887 5887 5888 5887 5887 5887 5886 5885 5885 5885 5885 5886 5887 5887 5888 5888 5889 5890 5890 5890 5890 5891 5891 5890 5890 5889 5889 5888 5887 5886 5886 5885 5884 5884 5883 5882 5881 5880 5878 5877 5877 5876 5875 5874 5873 5873 5871 5870 5869 5868 5867 5866 5865 5864 5863 5862 5862 5861
5886 5886 5886 5886 5885 5886 5886 5885 5885 5885 5885 5885 5884 5884 5884 5884 5884 5885 5885 5886 5886 5887 5888 5888 5888 5888 5889 5888 5888 5888 5887 5886 5885 5884 5883 5882 5882 5881 5880 5880 5879 5879 5877 5875 5874 5873 5872 5871 5871 5870 5869 5868 5866 5865 5864 5863 5862 5861 5860 5859 5858 5858 5857
5883 5884 5884 5883 5884 5884 5884 5884 5883 5883 5883 5884 5883 5883 5883 5882 5883 5883 5883 5884 5885 5885 5885 5886 5886 5886 5886 5886 5886 5885 5884 5883 5882 5881 5879 5879 5878 5877 5877 5876 5876 5875 5873 5872 5871 5870 5869 5868 5867 5866 5865 5863 5862 5861 5860 5859 5858 5857 5856 5856 5855 5854 5853
5881 5881 5881 5881 5881 5882 5882 5882 5881 5881 5882 5882 5882 5882 5881 5881 5881 5882 5882 5882 5882 5883 5883 5883 5884 5884 5884 5884 5883 5882 5881 5879 5877 5875 5875 5876 5875 5874 5873 5873 5872 5870 5869 5868 5866 5865 5864 5863 5863 5862 5860 5859 5858 5857 5856 5855 5854 5853 5852 5852 5851 5850 5849
5878 5878 5878 5879 5879 5880 5880 5880 5879 5879 5880 5880 5880 5880 5880 5880 5880 5880 5880 5880 5880 5880 5880 5881 5882 5882 5882 5881 5880 5879 5877 5874 5872 5872 5873 5873 5872 5870 5868 5867 5867 5865 5863 5862 5861 5861 5859 5858 5858 5857 5856 5855 5854 5853 5852 5850 5849 5848 5847 5847 5846 5845 5844
5875 5875 5876 5876 5877 5877 5877 5877 5877 5878 5878 5878 5878 5878 5878 5878 5878 5878 5878 5878 5878 5878 5879 5879 5879 5879 5879 5877 5876 5874 5871 5869 5868 5870 5870 5868 5866 5864 5863 5862 5862 5860 5859 5859 5858 5857 5855 5853 5853 5852 5851 5850 5849 5848 5846 5845 5844 5843 5842 5842 5842 5840 5839
5871 5872 5873 5873 5874 5874 5875 5875 5875 5875 5876 5876 5875 5875 5875 5876 5876 5876 5876 5876 5876 5876 5877 5877 5876 5876 5875 5873 5872 5869 5867 5866 5866 5866 5864 5862 5861 5859 5858 5858 5857 5855 5855 5855 5855 5854 5851 5849 5848 5846 5846 5845 5843 5842 5841 5839 5838 5838 5837 5837 5837 5836 5834
5868 5869 5869 5870 5871 5871 5872 5873 5873 5873 5873 5873 5873 5873 5873 5873 5873 5873 5873 5874 5874 5874 5874 5874 5873 5873 5871 5870 5868 5865 5864 5864 5864 5862 5859 5856 5855 5856 5855 5854 5853 5852 5851 5851 5851 5849 5847 5845 5843 5841 5839 5839 5837 5835 5834 5833 5832 5832 5832 5832 5832 5831 5830
5864 5865 5866 5867 5868 5869 5870 5870 5870 5870 5871 5870 5871 5871 5871 5871 5871 5871 5871 5872 5872 5872 5872 5872 5871 5870 5869 5867 5865 5863 5863 5862 5860 5857 5853 5847 5848 5853 5852 5850 5849 5849 5847 5846 5846 5844 5842 5840 5838 5835 5833 5832 5830 5828 5827 5827 5826 5826 5826 5827 5827 5826 5825
5861 5862 5863 5864 5865 5866 5867 5867 5867 5867 5868 5868 5868 5868 5869 5869 5869 5869 5869 5870 5870 5870 5869 5869 5868 5867 5866 5864 5862 5861 5861 5859 5857 5854 5849 5842 5842 5847 5847 5845 5845 5845 5844 5842 5840 5838 5836 5833 5831 5830 5827 5825 5822 5821 5821 5820 5820 5820 5821 5821 5821 5820 5820
5858 5859 5860 5861 5863 5864 5864 5865 5864 5864 5865 5865 5865 5865 5866 5866 5866 5867 5867 5867 5867 5867 5867 5866 5865 5864 5862 5861 5859 5858 5857 5856 5854 5851 5846 5839 5836 5839 5843 5842 5841 5840 5840 5837 5834 5832 5829 5826 5824 5822 5820 5817 5815 5814 5814 5813 5814 5815 5816 5815 5815 5814 5814
5856 5857 5857 5858 5860 5861 5862 5862 5862 5862 5862 5862 5862 5862 5863 5863 5863 5864 5864 5864 5863 5863 5863 5862 5861 5860 5859 5857 5855 5855 5853 5852 5850 5847 5843 5837 5832 5834 5838 5838 5836 5835 5833 5831 5828 5826 5823 5821 5819 5816 5812 5808 5806 5807 5808 5809 5809 5810 5809 5808 5808 5808 5809
5853 5854 5854 5856 5857 5858 5859 5859 5859 5859 5858 5858 5858 5858 5859 5860 5860 5860 5860 5859 5859 5859 5859 5858 5857 5856 5854 5853 5851 5850 5849 5847 5845 5843 5840 5835 5831 5831 5832 5832 5831 5829 5827 5824 5822 5820 5818 5817 5814 5810 5806 5803 5803 5804 5805 5806 5805 5804 5803 5802 5803 5803 5803
5850 5850 5851 5853 5854 5855 5855 5856 5856 5855 5855 5854 5854 5854 5855 5856 5856 5855 5855 5855 5855 5854 5854 5854 5853 5851 5850 5849 5847 5846 5844 5843 5841 5839 5836 5832 5829 5826 5825 5824 5824 5822 5818 5816 5814 5812 5811 5811 5808 5803 5802 5803 5802 5801 5802 5803 5802 5800 5798 5797 5797 5798 5798
5846 5847 5848 5849 5850 5851 5851 5852 5852 5851 5851 5850 5850 5850 5851 5852 5851 5851 5851 5851 5851 5850 5849 5849 5848 5847 5846 5844 5843 5841 5840 5838 5836 5834 5832 5829 5826 5823 5820 5818 5816 5813 5810 5808 5807 5805 5805 5805 5802 5800 5800 5802 5801 5798 5798 5798 5796 5794 5793 5792 5792 5792 5793
5842 5843 5843 5845 5846 5847 5847 5847 5848 5846 5845 5845 5845 5846 5847 5847 5847 5847 5847 5847 5846 5845 5845 5844 5843 5842 5841 5839 5838 5837 5835 5833 5831 5829 5827 5824 5822 5819 5816 5813 5811 5808 5806 5804 5802 5800 5800 5800 5799 5798 5798 5798 5796 5794 5793 5792 5790 5789 5789 5787 5786 5787 5788
5837 5838 5839 5841 5842 5842 5842 5841 5841 5841 5841 5841 5841 5842 5843 5843 5843 5843 5842 5842 5842 5841 5840 5839 5839 5837 5836 5835 5833 5832 5830 5828 5826 5824 5822 5819 5817 5814 5812 5810 5808 5805 5802 5800 5796 5794 5794 5795 5793 5792 5792 5792 5790 5789 5788 5786 5785 5785 5784 5782 5782 5783 5783
5832 5833 5835 5837 5837 5836 5836 5836 5837 5837 5837 5837 5837 5837 5838 5838 5838 5838 5838 5838 5837 5837 5835 5835 5834 5833 5832 5831 5829 5827 5825 5823 5821 5819 5817 5814 5812 5809 5807 5806 5804 5802 5799 5795 5791 5788 5789 5789 5787 5787 5787 5786 5785 5785 5783 5781 5781 5781 5779 5779 5778 5778 5777
5827 5828 5830 5831 5832 5832 5832 5832 5833 5833 5833 5833 5833 5833 5833 5833 5833 5833 5833 5833 5833 5832 5831 5830 5829 5828 5827 5826 5825 5823 5821 5818 5816 5814 5811 5809 5806 5804 5802 5801 5799 5797 5795 5791 5787 5785 5785 5784 5784 5784 5783 5782 5781 5780 5778 5776 5776 5775 5774 5774 5773 5773 5773
5822 5824 5825 5826 5827 5827 5828 5828 5829 5829 5829 5829 5829 5829 5829 5829 5829 5829 5829 5828 5828 5827 5826 5825 5824 5824 5823 5822 5820 5818 5816 5814 5811 5809 5806 5803 5801 5799 5798 5796 5794 5792 5791 5787 5784 5783 5782 5781 5780 5780 5778 5778 5777 5775 5773 5772 5772 5771 5770 5769 5768 5768 5768
5817 5818 5820 5821 5822 5823 5824 5824 5824 5824 5824 5825 5825 5825 5825 5825 5824 5824 5823 5823 5822 5822 5821 5820 5819 5818 5817 5816 5814 5812 5810 5808 5806 5803 5800 5798 5796 5795 5794 5791 5788 5787 5786 5784 5781 5779 5778 5777 5776 5775 5774 5772 5771 5770 5769 5769 5769 5768 5767 5765 5764 5764 5765
5812 5813 5815 5816 5817 5818 5819 5819 5820 5820 5820 5821 5821 5820 5820 5820 5819 5818 5818 5817 5817 5816 5816 5815 5813 5812 5810 5809 5807 5806 5804 5802 5799 5797 5795 5793 5792 5790 5789 5786 5783 5781 5780 5779 5777 5776 5774 5773 5772 5770 5769 5767 5766 5766 5766 5765 5764 5764 5763 5762 5761 5761 5762
5807 5809 5810 5811 5812 5813 5813 5813 5814 5814 5814 5815 5815 5815 5815 5815 5814 5814 5813 5812 5812 5811 5811 5809 5807 5805 5803 5802 5801 5800 5798 5795 5793 5792 5790 5789 5787 5786 5784 5782 5780 5778 5776 5775 5774 5772 5771 5770 5768 5766 5764 5762 5761 5761 5761 5761 5760 5760 5760 5760 5759 5758 5756
5803 5804 5805 5806 5807 5808 5808 5808 5808 5808 5807 5808 5808 5809 5809 5809 5808 5808 5807 5807 5806 5806 5804 5802 5800 5798 5797 5796 5795 5793 5791 5789 5787 5786 5785 5784 5783 5781 5779 5777 5776 5774 5772 5771 5770 5769 5768 5767 5765 5763 5761 5759 5757 5757 5757 5757 5757 5757 5757 5756 5754 5752 5750
5797 5798 5800 5801 5802 5803 5803 5803 5803 5803 5802 5802 5803 5803 5803 5803 5803 5802 5802 5801 5800 5799 5797 5795 5793 5791 5790 5789 5788 5786 5785 5783 5782 5781 5780 5779 5778 5777 5775 5773 5772 5771 5769 5768 5767 5766 5765 5763 5761 5760 5758 5756 5755 5754 5754 5754 5754 5753 5751 5750 5748 5746 5744
5791 5792 5794 5796 5797 5798 5798 5798 5798 5798 5798 5798 5798 5798 5798 5797 5797 5797 5796 5795 5794 5793 5791 5789 5787 5785 5783 5782 5780 5779 5778 5778 5777 5776 5776 5775 5774 5772 5771 5770 5768 5767 5766 5764 5763 5761 5759 5758 5756 5755 5754 5753 5752 5751 5751 5751 5749 5747 5745 5744 5742 5740 5738
5786 5788 5789 5790 5792 5792 5793 5793 5793 5793 5793 5793 5793 5793 5793 5792 5792 5791 5790 5789 5788 5786 5785 5783 5781 5779 5776 5775 5773 5773 5773 5773 5772 5772 5771 5770 5769 5768 5766 5765 5764 5762 5761 5759 5758 5756 5754 5752 5751 5750 5750 5750 5749 5748 5747 5746 5745 5743 5740 5738 5736 5734 5732
5781 5783 5784 5785 5786 5787 5787 5787 5788 5788 5788 5787 5787 5787 5787 5786 5785 5785 5784 5783 5781 5780 5779 5778 5775 5773 5771 5769 5769 5769 5769 5768 5767 5766 5765 5764 5763 5762 5761 5760 5759 5757 5756 5754 5752 5750 5749 5748 5747 5746 5746 5746 5746 5745 5743 5741 5739 5737 5735 5733 5731 5729 5727
5776 5778 5779 5780 5780 5781 5781 5782 5782 5782 5782 5781 5780 5780 5780 5780 5779 5778 5777 5776 5775 5774 5774 5772 5769 5768 5767 5766 5766 5765 5764 5763 5762 5761 5759 5758 5757 5756 5755 5754 5753 5751 5750 5748 5747 5745 5744 5743 5743 5742 5741 5741 5740 5739 5737 5735 5733 5731 5729 5727 5725 5723 5721
5770 5772 5774 5774 5775 5775 5775 5775 5775 5775 5775 5774 5773 5773 5773 5773 5772 5771 5770 5769 5769 5768 5767 5766 5765 5764 5763 5762 5761 5760 5759 5758 5757 5756 5754 5753 5751 5750 5749 5748 5746 5745 5744 5742 5741 5740 5739 5738 5738 5737 5736 5735 5734 5733 5731 5729 5727 5725 5723 5721 5719 5717 5714
5765 5767 5768 5769 5769 5768 5768 5768 5768 5768 5768 5767 5767 5767 5767 5766 5766 5765 5764 5764 5763 5762 5761 5761 5760 5759 5758 5757 5756 5755 5754 5753 5752 5751 5749 5748 5746 5744 5743 5742 5741 5740 5739 5738 5737 5736 5735 5734 5733 5732 5731 5729 5728 5726 5724 5722 5721 5719 5717 5715 5713 5710 5708
5761 5762 5762 5762 5762 5762 5762 5762 5762 5762 5762 5762 5762 5761 5761 5760 5759 5758 5758 5758 5757 5756 5756 5755 5755 5754 5753 5752 5751 5750 5748 5747 5746 5745 5744 5742 5740 5739 5738 5737 5736 5735 5735 5734 5732 5731 5730 5728 5727 5726 5724 5722 5721 5719 5717 5716 5715 5713 5711 5709 5706 5703 5701
Wind_Speed
18 16 13 11 12 13 13 14 14 15 15 14 16 20 21 21 20 19 17 15 13 14 15 16 16 16 17 16 15 15 16 16 16 16 16 17 17 17 17 18 18 18 19 20 20 20 20 21 21 22 22 21 21 21 21 21 21 21 20 20 20 21 22
18 14 11 11 12 12 13 15 17 17 16 15 16 18 20 20 18 17 17 16 15 16 16 15 15 16 16 15 14 14 15 15 15 16 16 16 17 18 18 18 18 18 19 21 21 21 21 22 23 24 24 23 21 21 21 22 23 23 23 23 22 22 24
14 11 11 12 12 13 15 16 18 18 17 16 16 17 18 19 19 18 18 17 17 17 16 14 14 15 15 14 14 14 14 15 16 17 17 17 17 18 19 19 19 18 19 20 21 21 22 23 24 25 25 24 22 22 22 23 24 25 26 25 24 24 25
11 11 13 14 13 14 16 16 18 18 17 17 17 17 18 20 21 20 19 18 17 16 15 14 14 14 14 14 14 14 15 16 17 18 19 19 19 20 20 21 21 20 21 21 21 22 23 23 24 25 25 25 24 23 24 24 25 26 27 27 26 26 26
13 14 14 14 14 14 15 16 17 16 16 16 16 16 17 19 19 19 18 17 16 16 15 14 13 13 14 14 14 15 16 17 18 19 20 22 22 23 23 24 24 24 24 24 24 23 23 23 24 25 26 26 27 26 26 25 26 27 27 28 28 28 28
13 14 15 14 14 15 16 17 16 15 15 15 15 15 16 16 15 14 15 15 15 15 14 12 12 13 14 14 15 16 17 17 19 20 22 23 24 24 24 24 26 28 29 28 28 27 25 24 25 26 27 28 29 30 28 26 26 27 28 29 30 30 30
13 14 15 15 16 17 17 17 16 15 14 14 13 13 13 12 11 11 11 12 13 14 13 12 13 13 14 15 16 17 18 19 21 22 23 24 24 24 24 23 25 29 31 30 30 30 28 27 26 27 28 29 31 32 30 28 27 27 27 28 30 30 30
15 15 17 18 19 19 18 17 17 16 14 13 12 10 9 9 9 10 11 12 13 13 12 12 12 13 14 16 18 19 20 21 22 23 25 25 25 24 25 25 27 30 32 33 34 33 31 31 31 29 29 30 31 33 33 30 28 28 28 28 29 30 30
17 17 19 23 23 20 18 18 18 17 15 14 12 10 9 9 9 10 10 11 11 11 11 12 12 14 15 17 18 20 21 23 24 26 27 27 27 27 27 27 27 29 31 34 36 36 35 36 35 32 30 31 32 33 34 33 32 30 30 29 29 31 31
19 19 22 25 24 21 19 19 19 18 17 15 14 13 11 10 9 9 9 10 10 10 12 12 12 14 15 17 19 21 23 25 27 29 29 28 29 31 31 30 29 30 31 33 37 38 40 41 38 34 32 33 34 34 34 35 35 34 32 31 30 31 32
22 23 23 24 24 22 20 20 20 19 18 17 16 15 15 13 11 11 10 10 10 11 12 12 12 14 16 19 21 23 25 28 30 32 31 31 32 34 35 34 33 32 32 33 37 39 41 43 42 39 38 36 36 35 35 35 36 36 34 32 31 30 31
24 24 23 23 23 22 22 22 21 20 19 17 16 15 15 14 14 13 12 11 10 11 11 12 15 17 18 21 22 24 27 30 32 32 32 33 35 37 38 38 38 37 35 34 36 38 41 43 44 44 44 42 39 37 36 36 37 36 34 32 31 30 30
24 23 23 23 23 23 24 23 21 21 20 18 16 14 13 13 13 13 12 11 11 11 13 15 17 19 20 22 23 25 29 31 30 30 30 31 32 33 36 37 37 38 37 37 38 40 41 42 45 47 47 45 44 42 40 38 38 38 35 33 32 30 30
25 25 24 24 24 25 25 23 22 21 20 20 17 14 12 12 12 12 12 11 12 12 14 16 18 20 21 22 24 27 29 30 29 30 32 33 32 30 32 34 33 34 36 37 38 39 41 41 44 48 48 45 45 46 44 40 39 38 36 34 32 32 31
23 25 25 25 25 25 24 23 23 21 20 20 18 15 13 12 12 13 13 13 13 14 16 17 18 20 21 23 25 27 28 29 30 33 37 42 42 38 37 36 34 34 36 38 40 41 43 43 43 47 48 46 47 49 46 41 40 38 35 33 33 34 33
21 23 24 24 24 24 23 22 22 22 20 19 18 17 15 13 13 14 15 16 16 17 17 18 19 20 21 24 26 27 29 30 32 35 40 46 48 45 43 41 38 37 40 44 45 44 45 46 47 48 49 48 50 52 49 44 40 36 33 34 35 36 35
19 21 22 23 23 23 22 21 22 23 21 18 19 19 18 17 16 16 16 17 18 18 18 19 19 21 23 26 28 29 30 31 33 36 41 47 51 49 46 42 40 41 43 44 45 44 43 44 45 49 54 55 53 53 53 48 39 33 34 37 38 38 37
20 21 23 24 23 22 21 21 22 23 23 22 22 21 21 20 20 20 20 20 19 19 19 20 22 24 26 29 30 32 33 34 35 38 43 49 53 52 46 42 42 44 43 43 44 43 43 42 41 46 54 57 56 53 51 48 40 36 38 40 39 38 37
22 24 25 24 21 20 20 21 22 24 25 25 26 25 24 23 23 24 24 24 23 22 22 23 25 27 29 31 32 33 35 37 38 41 46 50 53 51 46 42 43 44 44 45 44 43 44 44 43 46 50 51 53 51 47 43 40 39 41 41 38 37 37
25 27 27 24 20 20 22 23 24 27 28 28 30 29 27 25 25 26 26 27 27 27 27 27 28 30 31 32 34 35 37 39 40 43 47 51 53 53 50 47 45 46 48 49 46 45 46 45 46 50 48 44 44 42 38 37 37 40 43 41 37 36 36
26 28 29 27 23 23 25 25 26 29 31 32 33 32 29 27 27 27 28 29 31 32 32 32 32 32 34 35 36 37 38 40 41 44 48 51 52 53 53 52 51 51 51 48 46 47 47 45 45 45 42 39 39 36 31 32 37 42 44 41 36 34 34
28 31 32 30 27 26 27 27 28 32 34 36 36 34 31 30 30 29 30 31 33 34 35 35 36 36 37 38 39 39 39 41 43 46 49 50 51 52 52 54 54 52 49 48 49 47 43 40 38 33 32 37 40 35 30 33 38 41 43 42 37 33 32
32 34 34 32 30 30 31 32 34 36 38 38 38 36 34 34 33 32 33 34 34 36 37 38 39 39 40 41 42 42 43 44 45 48 50 51 51 52 52 53 53 50 48 47 45 39 35 36 35 30 30 34 33 30 30 33 38 41 43 41 35 30 31
35 36 36 35 35 36 37 37 38 39 39 39 39 38 37 37 36 35 35 36 35 36 38 39 40 42 42 44 45 45 46 47 49 51 52 52 51 51 52 53 51 48 45 41 38 36 37 38 35 32 32 31 30 30 31 33 37 40 38 35 32 31 32
37 38 38 38 39 40 40 41 41 42 42 42 41 40 40 40 39 38 38 38 37 38 38 39 41 43 44 45 46 47 48 49 52 54 54 53 52 50 51 51 50 46 41 38 39 41 42 39 35 34 33 32 33 36 33 33 37 38 35 32 30 30 29
38 39 40 41 41 41 42 43 43 44 45 44 43 42 42 43 42 41 40 40 41 40 39 39 42 44 46 46 47 48 49 51 53 54 54 53 50 47 48 49 48 43 38 37 40 41 40 38 36 35 35 35 37 36 30 30 34 34 32 30 29 27 26
40 40 41 42 42 42 42 43 44 45 45 45 44 43 43 44 43 42 42 43 44 44 41 41 44 45 46 47 48 48 50 51 52 53 52 50 47 45 46 47 46 41 35 35 37 38 38 38 37 36 36 36 35 29 24 26 30 29 27 29 32 31 29
40 40 41 42 42 42 42 43 44 44 43 43 42 42 43 44 44 44 45 46 47 47 44 44 46 48 47 48 49 49 50 51 51 51 50 47 45 45 46 46 45 41 37 35 36 37 37 37 37 37 36 34 32 27 26 30 32 29 27 31 35 34 34
41 41 41 42 43 42 43 44 44 44 43 42 42 42 44 45 46 46 48 50 50 48 46 47 49 49 48 49 49 49 50 50 49 49 48 47 46 46 46 44 42 40 37 35 35 35 35 36 37 37 36 35 33 31 31 31 31 30 30 33 34 35 40
42 42 43 44 45 45 46 46 46 46 45 44 43 45 46 48 49 48 48 49 48 48 47 49 50 50 50 49 49 49 50 49 48 48 48 47 46 45 43 41 39 38 36 35 34 33 34 36 36 36 36 35 33 32 33 31 29 29 31 34 36 39 42
44 44 44 44 44 44 46 48 50 50 49 46 45 46 48 49 50 49 48 47 46 47 48 49 50 51 51 50 49 50 50 49 47 46 45 45 44 42 40 38 37 36 36 35 34 34 35 36 35 35 34 33 31 32 33 31 30 33 37 39 40 40 40
44 43 42 41 40 40 41 43 45 47 47 46 46 48 48 48 47 48 49 49 48 48 47 47 48 50 50 49 49 49 47 45 42 41 40 40 39 38 36 36 35 36 37 37 37 38 38 37 36 34 32 29 29 31 33 33 36 42 45 45 43 41 41
42 41 40 38 38 37 37 37 38 40 42 45 46 47 48 47 47 48 49 49 48 46 45 45 45 45 45 45 45 43 40 37 36 35 36 36 36 36 35 35 36 37 38 38 39 39 39 38 37 35 30 26 27 32 35 38 42 46 47 46 44 43 43
39 38 37 35 35 35 36 37 40 42 45 47 48 48 47 47 48 48 48 48 47 46 44 41 39 40 39 38 37 35 34 33 34 35 36 36 36 36 36 36 37 38 39 39 40 40 39 38 36 35 32 29 30 34 38 41 45 46 46 44 43 42 42
36 35 34 34 36 38 40 42 44 45 46 46 46 46 46 46 48 48 48 48 47 43 38 35 34 34 33 32 33 33 34 34 35 37 38 39 39 39 38 38 38 39 40 41 41 40 39 38 37 36 35 34 35 37 39 42 43 42 41 40 40 41 41
35 34 35 36 38 41 43 44 43 43 44 44 44 45 47 48 48 47 46 44 41 36 33 32 32 32 32 34 35 36 36 36 37 38 39 41 42 41 40 40 40 41 42 42 41 40 39 39 39 38 38 37 38 38 38 38 38 37 38 38 39 40 41
35 34 35 36 38 41 43 44 44 45 46 47 47 48 49 47 45 43 42 40 38 35 35 35 34 34 36 37 37 37 37 38 38 39 40 42 43 42 42 41 41 42 43 42 40 40 40 40 40 40 39 39 39 39 38 38 38 38 39 40 40 41 40
34 35 35 36 38 41 43 44 46 47 48 48 48 48 47 44 42 40 40 39 37 36 36 36 36 37 38 38 39 39 39 40 40 41 41 42 41 40 40 41 42 43 43 42 41 41 41 41 41 40 40 40 40 40 39 39 40 41 41 41 41 42 42
Wind_Direction
225 233 248 256 262 275 286 291 291 293 294 284 267 257 257 258 258 258 256 254 258 264 270 273 274 276 278 282 286 289 293 296 298 300 303 308 310 310 310 310 310 311 315 317 317 316 314 309 305 300 298 298 297 298 299 298 295 293 293 292 292 294 298
236 241 243 250 261 274 283 287 290 293 294 288 275 263 259 259 257 255 252 253 261 268 272 272 272 275 279 282 287 290 293 294 298 301 301 304 308 308 306 307 307 307 309 312 312 312 310 307 303 297 294 294 296 299 300 299 297 295 293 292 291 292 296
244 240 237 245 256 267 274 281 290 297 297 289 278 267 261 258 256 254 253 258 267 271 272 270 271 275 279 285 289 291 293 295 300 303 303 306 309 309 307 305 303 303 306 308 307 304 303 301 298 294 291 291 295 298 300 299 297 295 294 293 292 292 293
253 252 247 243 247 261 270 280 291 300 301 294 280 267 261 259 257 257 259 263 267 269 269 267 270 275 279 284 287 288 293 299 304 307 310 312 311 309 308 304 301 299 301 303 302 299 297 297 296 293 289 288 290 294 297 299 297 295 294 294 294 293 291
255 260 254 247 251 265 272 280 292 299 300 296 283 266 258 257 258 259 260 259 259 261 263 265 269 275 279 283 287 291 297 303 306 308 310 311 310 308 307 304 301 298 297 297 297 296 297 298 296 291 287 286 287 290 293 296 297 296 295 294 293 293 292
253 252 253 254 257 264 271 280 292 296 294 294 284 267 255 253 254 256 256 251 250 253 257 262 269 274 278 283 289 294 300 302 303 304 304 305 305 305 303 302 299 297 297 297 296 296 297 300 295 287 285 286 288 289 290 292 296 296 294 292 291 292 292
256 248 252 256 257 263 272 283 291 290 286 287 283 269 254 246 241 243 247 243 243 248 253 259 265 270 278 285 291 295 297 297 298 300 300 299 300 299 298 296 293 292 294 296 298 297 296 298 295 288 287 289 290 289 289 289 291 293 292 291 289 290 291
258 254 253 253 257 265 273 284 290 286 281 280 276 265 249 235 228 230 236 240 244 249 253 258 264 273 282 287 290 293 294 295 297 297 296 295 295 295 295 295 292 290 290 291 296 296 292 293 295 289 287 289 289 288 288 288 288 289 291 292 289 288 289
261 257 251 252 258 264 272 283 287 283 279 275 266 255 246 236 230 229 232 240 246 250 255 261 267 276 282 286 290 293 296 299 300 296 293 292 292 292 294 296 296 292 291 293 295 293 287 289 294 291 286 285 285 285 286 288 288 286 287 290 289 287 286
264 259 254 255 258 261 269 278 281 279 277 272 261 250 244 237 232 230 232 237 241 246 255 262 269 277 282 287 292 296 300 303 299 294 293 293 294 294 292 292 294 293 291 292 294 292 288 287 289 291 289 284 283 283 283 284 286 284 283 286 288 287 284
259 257 257 258 257 258 266 274 277 275 271 268 261 250 243 239 238 241 242 241 243 247 257 268 277 283 287 291 296 302 304 301 296 295 297 298 296 294 289 287 288 288 286 288 292 293 291 287 284 288 292 288 284 283 281 280 281 282 280 282 286 287 284
256 257 258 258 257 257 263 269 272 269 265 264 259 250 246 245 249 254 254 251 249 253 265 281 289 292 295 298 302 307 304 298 298 302 305 302 296 292 290 289 287 285 284 287 293 295 296 292 286 286 290 288 285 284 282 278 277 278 278 279 283 285 283
250 250 251 252 253 257 262 265 265 262 259 257 255 253 253 254 257 258 254 251 253 263 279 290 296 300 302 304 306 305 300 301 308 314 310 302 295 292 294 294 290 288 287 289 294 297 297 295 289 286 287 286 283 282 281 278 274 274 274 275 279 281 280
243 242 243 245 250 257 262 263 261 257 252 250 250 251 255 258 259 256 252 256 264 277 287 293 300 303 303 305 304 301 301 307 316 317 309 300 292 290 296 296 292 294 295 295 295 295 296 296 293 288 285 283 283 280 277 276 274 271 270 272 275 277 279
237 237 239 243 248 254 257 257 257 255 249 245 243 242 246 251 256 258 261 268 276 284 288 293 299 300 300 304 303 302 306 312 314 313 310 304 294 287 290 292 291 294 298 299 299 297 296 296 294 289 283 280 282 278 271 272 272 266 266 270 272 275 279
230 233 237 239 242 245 248 250 253 255 254 250 246 245 245 246 254 263 269 273 278 282 286 292 296 297 300 305 307 309 311 311 310 310 310 308 301 292 289 289 291 295 298 300 302 299 297 294 290 287 281 276 279 278 270 268 266 261 265 273 273 275 277
231 233 234 233 234 239 243 246 252 257 261 262 259 256 254 255 262 273 280 280 279 281 288 296 301 302 304 308 310 312 312 309 309 310 309 309 307 300 295 295 297 299 300 301 301 300 300 298 293 288 280 273 276 277 270 265 261 262 272 276 275 276 276
231 230 230 232 236 240 244 248 254 261 265 266 265 265 265 266 272 281 288 290 290 293 300 305 306 307 308 309 309 311 312 310 310 312 314 314 311 306 302 302 303 302 301 302 300 298 298 298 296 291 282 276 276 275 271 268 265 267 274 276 276 276 274
229 231 234 239 242 242 244 248 254 260 262 264 267 269 268 270 274 282 289 295 297 301 307 310 310 309 309 308 307 307 309 311 311 313 317 318 316 312 309 307 304 302 302 301 300 298 296 297 296 289 284 285 287 282 278 278 276 274 274 275 276 275 271
228 233 237 240 241 242 243 246 252 256 260 264 268 269 270 272 276 283 292 298 300 301 304 307 309 309 308 307 305 304 306 309 310 313 316 318 317 315 314 312 309 306 305 304 302 301 299 299 296 288 286 297 303 295 288 286 283 279 276 274 273 269 268
231 234 236 239 241 244 247 250 254 257 258 261 264 267 272 276 278 284 292 298 301 301 301 303 305 306 306 305 305 305 306 308 309 311 313 314 314 314 314 315 314 311 309 307 307 305 301 302 302 297 294 302 307 302 295 287 283 281 279 275 269 265 270
231 233 234 237 239 244 249 252 251 251 253 258 264 269 275 278 280 284 289 294 299 300 300 299 300 303 304 304 305 305 306 308 308 309 310 311 312 313 313 314 315 313 311 309 305 300 298 306 315 311 300 298 299 299 296 286 281 281 280 275 266 265 277
228 232 233 234 236 240 243 243 244 248 254 260 267 271 274 277 280 283 286 290 295 297 297 297 297 299 300 302 303 303 302 304 306 308 309 309 310 310 310 311 313 313 312 310 307 304 306 316 323 317 304 300 301 303 298 286 281 282 280 274 267 273 286
228 231 232 234 237 240 242 243 247 252 256 260 265 269 272 275 279 282 285 288 290 292 295 296 295 297 298 299 300 300 299 300 303 307 308 307 307 307 307 308 310 311 310 308 309 315 319 320 320 315 307 304 306 308 301 286 279 278 275 271 273 284 288
230 232 232 234 239 243 245 248 250 253 256 260 264 268 271 274 277 281 283 285 285 287 292 295 295 296 298 298 298 299 298 298 301 305 306 306 305 304 304 305 307 309 309 305 306 311 315 316 315 313 309 307 309 310 299 281 273 272 270 271 278 286 284
233 234 234 236 241 245 248 252 254 256 259 262 264 266 269 273 277 279 281 282 282 283 287 293 296 296 297 297 298 298 297 297 300 303 304 304 303 302 303 304 306 308 307 304 304 308 311 313 312 311 310 310 312 309 292 273 270 272 274 278 282 284 283
240 239 239 240 244 247 251 255 257 258 260 262 264 267 271 274 276 277 279 281 280 280 284 292 297 298 297 298 300 300 299 299 301 303 303 303 302 302 303 304 306 308 307 304 304 307 309 310 310 311 311 312 313 304 284 277 281 277 274 279 282 283 284
247 246 244 244 246 249 253 256 258 260 262 264 266 269 272 273 274 276 278 279 279 281 285 291 296 299 299 299 302 304 303 302 302 302 301 301 301 302 303 303 305 307 307 306 306 306 307 309 311 313 314 316 314 299 279 277 277 268 264 275 281 285 291
251 252 251 250 250 252 255 255 256 258 259 260 264 268 269 270 271 274 276 277 280 284 286 289 294 297 299 300 302 304 303 301 300 298 298 297 298 299 300 300 302 303 304 305 305 305 306 309 311 313 313 315 313 298 280 270 264 262 269 280 286 292 297
248 250 252 252 252 254 256 256 255 256 256 259 264 267 267 266 267 271 275 278 281 284 287 291 295 297 298 299 301 301 301 299 297 295 295 294 295 297 297 297 299 301 303 304 303 303 304 305 308 310 310 312 309 294 276 265 264 272 283 290 294 297 295
246 247 250 252 254 257 260 261 260 261 260 260 262 265 265 265 267 271 276 280 282 286 289 294 296 297 297 297 297 296 295 295 294 294 292 292 294 295 296 297 298 298 301 302 302 301 301 302 305 307 306 306 300 283 267 261 270 285 296 301 303 301 297
251 252 254 255 256 258 261 263 264 266 266 265 266 267 268 268 270 272 276 280 284 288 292 296 298 298 296 294 292 290 290 291 292 291 290 291 293 293 293 294 295 295 298 300 300 301 302 304 306 307 305 301 291 277 266 267 279 292 302 306 305 303 300
252 252 254 256 257 260 263 265 266 268 269 269 269 271 272 272 274 275 277 281 284 287 291 296 299 298 296 292 289 287 287 288 288 288 288 289 290 290 289 290 291 292 295 296 298 300 303 306 308 308 305 296 282 274 273 279 286 294 300 302 302 301 301
248 250 252 254 257 260 262 264 267 269 270 270 271 273 274 275 275 276 278 280 283 286 290 294 295 296 296 293 289 286 285 286 287 288 289 288 287 287 287 287 289 291 293 295 298 301 303 305 306 305 301 293 284 281 283 287 291 294 296 298 299 300 299
248 252 254 256 259 263 266 269 272 272 272 272 273 274 275 275 275 277 278 280 284 288 290 289 288 290 290 288 285 284 285 286 288 289 289 289 288 287 288 289 290 292 295 298 300 302 303 303 302 301 298 295 292 291 291 291 292 294 295 297 298 297 297
255 258 261 264 268 271 272 274 274 273 272 272 274 275 277 277 277 278 280 282 286 288 285 282 281 282 282 281 282 284 285 286 287 288 290 290 289 287 287 289 291 295 299 301 301 302 302 301 300 299 298 298 297 297 297 297 296 296 297 298 299 298 297
256 260 266 270 273 274 274 274 274 273 274 276 278 279 279 278 278 278 279 282 284 282 280 278 278 278 279 281 282 283 283 284 285 288 290 292 290 287 285 287 290 295 299 300 299 299 299 299 299 300 300 301 302 303 302 300 299 299 300 300 300 300 300
259 264 269 272 273 274 274 273 272 272 274 276 278 278 276 275 275 275 276 278 279 279 278 278 278 278 280 281 282 282 283 284 286 289 290 291 290 286 283 285 290 294 296 296 295 296 298 299 300 301 303 304 304 304 302 300 300 300 301 301 302 302 302